Погода в Горынке

Украина / Тернопольская область     49°59′16″N   25°46′16″E
темп.,
°C
ветер,
м/с
пор.,
м/с
влажн.,
%
обл.,
%
осадки,
мм/ч
давл.,
гПа
погр.,
м
18 мая, вт
вт1800:00+12зюз008499 0.0 100210
03:00+11ю11882 0.0 100210
06:00+10ссв00905 0.0 100110
09:00+15ссв227649 0.0 1001368
12:00+17зсз326687 1.2 10011062
15:00+18сз5565100 2.8 10001322
18:00+16сз687853 2.0 1001964
21:00+12сз81493100 3.3 1002581
19 мая, ср
ср1900:00+12сз81496100 0.1 1003807
03:00+11зсз81497100 0.4 1004769
06:00+10сз71497100 1.4 1005687
09:00+10зсз91396100 3.3 1007782
12:00+11зсз71093100 0.1 1009824
15:00+12зсз71088100 0.4 1009734
18:00+13сз5780100 0.1 1009855
21:00+11зсз3690100 0.2 1010134
20 мая, чт
чт2000:00+9сз3793100 0.0 1010188
03:00+8зсз349593 0.0 101080
06:00+10сз369598 0.0 1010211
09:00+12ссз358294 0.0 1010589
12:00+15с457296 1.5 10101132
15:00+15с567396 3.4 1010919
18:00+15ссв577295 0.9 10111113
21:00+11ссв51286100 1.3 1012440
21 мая, пт
пт2100:00+9ссв41192100 0.0 1014288
03:00+8с31094100 0.0 1015264
06:00+8с41092100 0.0 1016327
09:00+9с5882100 0.0 1017440
12:00+13с5563100 0.0 10181012
15:00+14с5557100 0.0 10181187
18:00+14ссв345697 0.0 1018926
21:00+10в11715 0.0 101910
22 мая, сб
сб2200:00+8зсз22754 0.0 101920
03:00+7зсз11810 0.0 101910
06:00+7юв11825 0.0 101911
09:00+13юв34675 0.0 1018351
12:00+17ююв23545 0.0 10171142
15:00+19ю335150 0.0 10161760
18:00+17ююв3463100 0.0 101596
21:00+13ююв3375100 0.0 101437